Location: Im Fang
(46.6019°N, 7.2397°E)
Time: 18:29:01
(UTC+00:00)

Okean O Rocket - Pass Details

Date: 08 December 2019
Orbit: 624 x 644 km, 98.2° (Epoch: 19 January)

Event Time Altitude Azimuth Distance (km) Brightness Sun altitude
Rises 05:09:43 0° 14° (NNE) 2,928 5.0 -18.4°
Reaches altitude 10° 05:11:56 10° 16° (NNE) 2,018 4.2 -18.1°
Maximum altitude 05:16:20 80° 104° (ESE) 648 1.7 -17.3°
Drops below altitude 10° 05:20:43 10° 191° (S) 2,014 4.2 -16.6°
Sets 05:22:55 0° 193° (SSW) 2,921 5.1 -16.2°
